Hourly Weather Dzieraznia

Today, 15 May, Saturday

Time Temperature Precipitation Wind Pressure Humidity
00:00 +9°C° 0 mm 3 mps 734 mmHg 92%
01:00 +8°C° 0 mm 3 mps 735 mmHg 92%
02:00 +8°C° 0 mm 3 mps 735 mmHg 93%
03:00 +8°C° 0 mm 3 mps 735 mmHg 93%
04:00 +8°C° 0 mm 2 mps 735 mmHg 93%
05:00 +10°C° 0 mm 2 mps 735 mmHg 90%
06:00 +12°C° 0 mm 2 mps 736 mmHg 86%
07:00 +13°C° 0 mm 2 mps 736 mmHg 83%
08:00 +14°C° 0 mm 2 mps 736 mmHg 76%
09:00 +15°C° 0 mm 2 mps 736 mmHg 70%
10:00 +17°C° 0 mm 2 mps 736 mmHg 64%
11:00 +18°C° 0 mm 1 mps 736 mmHg 61%
12:00 +19°C° 0 mm 1 mps 736 mmHg 58%
13:00 +19°C° 0 mm 1 mps 735 mmHg 55%
14:00 +19°C° 0.1 mm 1 mps 735 mmHg 59%
15:00 +18°C° 0.1 mm 2 mps 735 mmHg 63%
16:00 +18°C° 0.1 mm 3 mps 735 mmHg 66%
17:00 +16°C° 0.2 mm 3 mps 735 mmHg 73%
18:00 +14°C° 0.2 mm 3 mps 734 mmHg 79%
19:00 +14°C° 0.2 mm 2 mps 734 mmHg 86%
20:00 +13°C° 0.2 mm 2 mps 734 mmHg 88%
21:00 +13°C° 0.2 mm 2 mps 734 mmHg 90%
22:00 +12°C° 0.2 mm 2 mps 734 mmHg 91%
23:00 +12°C° 0.3 mm 2 mps 734 mmHg 92%

Tomorrow, 16 May, Sunday

Time Temperature Precipitation Wind Pressure Humidity
00:00 +10°C° 0.3 mm 2 mps 733 mmHg 92%
01:00 +10°C° 0.3 mm 2 mps 733 mmHg 93%
02:00 +11°C° 0 mm 1 mps 733 mmHg 93%
03:00 +11°C° 0 mm 1 mps 733 mmHg 93%
04:00 +11°C° 0 mm 1 mps 733 mmHg 93%
05:00 +12°C° 0.1 mm 1 mps 733 mmHg 90%
06:00 +13°C° 0.1 mm 1 mps 733 mmHg 88%
07:00 +14°C° 0.1 mm 2 mps 733 mmHg 86%
08:00 +15°C° 0.3 mm 2 mps 733 mmHg 82%
09:00 +16°C° 0.3 mm 2 mps 733 mmHg 79%
10:00 +17°C° 0.3 mm 2 mps 733 mmHg 75%
11:00 +16°C° 1.2 mm 2 mps 733 mmHg 80%
12:00 +15°C° 1.2 mm 2 mps 733 mmHg 85%
13:00 +14°C° 1.2 mm 2 mps 733 mmHg 90%
14:00 +13°C° 0.5 mm 3 mps 732 mmHg 90%
15:00 +13°C° 0.5 mm 3 mps 732 mmHg 90%
16:00 +13°C° 0.5 mm 4 mps 732 mmHg 89%
17:00 +12°C° 0.1 mm 3 mps 732 mmHg 91%
18:00 +11°C° 0.1 mm 3 mps 732 mmHg 92%
19:00 +11°C° 0.1 mm 3 mps 733 mmHg 93%
20:00 +10°C° 0 mm 2 mps 733 mmHg 93%
21:00 +9°C° 0 mm 2 mps 733 mmHg 93%
22:00 +9°C° 0 mm 1 mps 733 mmHg 93%
23:00 +9°C° 0 mm 1 mps 733 mmHg 93%

Day after tomorrow, 17 May, Monday

Time Temperature Precipitation Wind Pressure Humidity
00:00 +8°C° 0 mm 1 mps 733 mmHg 93%
01:00 +8°C° 0 mm 1 mps 733 mmHg 92%
02:00 +8°C° 0 mm 1 mps 733 mmHg 92%
03:00 +8°C° 0 mm 1 mps 733 mmHg 92%
04:00 +8°C° 0 mm 1 mps 733 mmHg 91%
05:00 +9°C° 0 mm 1 mps 733 mmHg 88%
06:00 +11°C° 0 mm 1 mps 733 mmHg 85%
07:00 +12°C° 0 mm 1 mps 734 mmHg 82%
08:00 +13°C° 0.1 mm 1 mps 733 mmHg 80%
09:00 +14°C° 0.1 mm 1 mps 733 mmHg 78%
10:00 +14°C° 0.1 mm 1 mps 733 mmHg 76%
11:00 +14°C° 0.4 mm 2 mps 733 mmHg 78%
12:00 +14°C° 0.4 mm 2 mps 733 mmHg 79%
13:00 +14°C° 0.4 mm 2 mps 733 mmHg 80%
14:00 +14°C° 0.2 mm 2 mps 733 mmHg 80%
15:00 +14°C° 0.2 mm 2 mps 733 mmHg 79%
16:00 +15°C° 0.2 mm 2 mps 733 mmHg 79%
17:00 +13°C° 0.2 mm 3 mps 733 mmHg 82%
18:00 +12°C° 0.2 mm 3 mps 733 mmHg 86%
19:00 +11°C° 0.2 mm 3 mps 733 mmHg 89%
20:00 +10°C° 0 mm 3 mps 733 mmHg 91%
21:00 +9°C° 0 mm 3 mps 733 mmHg 92%
22:00 +8°C° 0 mm 3 mps 734 mmHg 93%
23:00 +8°C° 0 mm 3 mps 734 mmHg 94%

18 May, Tuesday

Time Temperature Precipitation Wind Pressure Humidity
00:00 +7°C° 0 mm 3 mps 734 mmHg 95%
01:00 +6°C° 0 mm 4 mps 734 mmHg 95%
02:00 +6°C° 0 mm 4 mps 734 mmHg 95%
03:00 +6°C° 0 mm 4 mps 734 mmHg 94%
04:00 +7°C° 0 mm 3 mps 735 mmHg 94%
05:00 +7°C° 0 mm 4 mps 735 mmHg 90%
06:00 +8°C° 0 mm 5 mps 735 mmHg 86%
07:00 +9°C° 0 mm 5 mps 735 mmHg 83%
08:00 +10°C° 0 mm 5 mps 735 mmHg 77%
09:00 +11°C° 0 mm 6 mps 736 mmHg 71%
10:00 +13°C° 0 mm 6 mps 736 mmHg 66%
11:00 +13°C° 0.1 mm 6 mps 736 mmHg 67%
12:00 +14°C° 0.1 mm 6 mps 736 mmHg 68%
13:00 +14°C° 0.1 mm 6 mps 736 mmHg 69%
14:00 +14°C° 0.2 mm 6 mps 736 mmHg 70%
15:00 +14°C° 0.2 mm 5 mps 736 mmHg 70%
16:00 +14°C° 0.2 mm 4 mps 736 mmHg 71%
17:00 +13°C° 0.2 mm 4 mps 736 mmHg 76%
18:00 +11°C° 0.2 mm 3 mps 736 mmHg 81%
19:00 +10°C° 0.2 mm 3 mps 736 mmHg 87%
20:00 +9°C° 0 mm 3 mps 736 mmHg 88%
21:00 +9°C° 0 mm 3 mps 737 mmHg 90%
22:00 +8°C° 0 mm 2 mps 737 mmHg 92%
23:00 +7°C° 0 mm 2 mps 737 mmHg 92%

19 May, Wednesday

Time Temperature Precipitation Wind Pressure Humidity
00:00 +7°C° 0 mm 2 mps 737 mmHg 93%
01:00 +7°C° 0 mm 2 mps 737 mmHg 93%
02:00 +7°C° 0 mm 2 mps 737 mmHg 94%
03:00 +7°C° 0 mm 2 mps 737 mmHg 94%
04:00 +7°C° 0 mm 2 mps 737 mmHg 94%
05:00 +7°C° 0 mm 3 mps 737 mmHg 92%
06:00 +8°C° 0 mm 3 mps 738 mmHg 90%
07:00 +9°C° 0 mm 3 mps 738 mmHg 88%
08:00 +10°C° 0.1 mm 3 mps 738 mmHg 85%
09:00 +10°C° 0.1 mm 4 mps 738 mmHg 82%
10:00 +10°C° 0.1 mm 5 mps 738 mmHg 79%
11:00 +12°C° 0.1 mm 5 mps 738 mmHg 75%
12:00 +12°C° 0.1 mm 5 mps 738 mmHg 72%
13:00 +13°C° 0.1 mm 5 mps 738 mmHg 68%
14:00 +13°C° 0.1 mm 5 mps 738 mmHg 69%
15:00 +13°C° 0.1 mm 5 mps 738 mmHg 70%
16:00 +13°C° 0.1 mm 5 mps 738 mmHg 71%
17:00 +12°C° 0.1 mm 4 mps 738 mmHg 75%
18:00 +11°C° 0.1 mm 3 mps 738 mmHg 79%
19:00 +10°C° 0.1 mm 2 mps 738 mmHg 83%
20:00 +9°C° 0 mm 2 mps 738 mmHg 85%
21:00 +8°C° 0 mm 2 mps 739 mmHg 88%
22:00 +7°C° 0 mm 2 mps 739 mmHg 90%
23:00 +5°C° 0 mm 3 mps 739 mmHg 91%

20 May, Thursday

Time Temperature Precipitation Wind Pressure Humidity
00:00 +5°C° 0 mm 3 mps 739 mmHg 92%
01:00 +4°C° 0 mm 3 mps 739 mmHg 93%
02:00 +4°C° 0 mm 3 mps 739 mmHg 94%
03:00 +4°C° 0 mm 3 mps 739 mmHg 95%
04:00 +4°C° 0 mm 3 mps 740 mmHg 95%
05:00 +5°C° 0 mm 4 mps 740 mmHg 91%
06:00 +7°C° 0 mm 5 mps 740 mmHg 86%
07:00 +9°C° 0 mm 6 mps 740 mmHg 82%
08:00 +9°C° 0.1 mm 6 mps 741 mmHg 80%
09:00 +10°C° 0.1 mm 7 mps 741 mmHg 78%
10:00 +11°C° 0.1 mm 7 mps 741 mmHg 76%
11:00 +11°C° 0.1 mm 7 mps 741 mmHg 75%
12:00 +11°C° 0.1 mm 7 mps 741 mmHg 73%
13:00 +11°C° 0.1 mm 6 mps 741 mmHg 72%
14:00 +11°C° 0.1 mm 6 mps 741 mmHg 71%
15:00 +13°C° 0.1 mm 6 mps 741 mmHg 70%
16:00 +13°C° 0.1 mm 6 mps 741 mmHg 68%
17:00 +12°C° 0.1 mm 5 mps 741 mmHg 74%
18:00 +10°C° 0.1 mm 4 mps 741 mmHg 79%
19:00 +9°C° 0.1 mm 3 mps 742 mmHg 84%
20:00 +8°C° 0 mm 3 mps 742 mmHg 87%
21:00 +7°C° 0 mm 3 mps 742 mmHg 90%
22:00 +7°C° 0 mm 3 mps 742 mmHg 93%
23:00 +5°C° 0 mm 3 mps 742 mmHg 93%
Show more

We Need Your Consent

Meteoprog and our Service Providers may store and access personal data such as cookies, device identifiers or other similar technologies on your device and process such data to personalise content and ads, as well as provide social media features and to analyse the traffic.

  • Store and/or access information on your device

    Cookies, device identifiers or other information can be stored or accessed on your device for the purposes indicated above.

  • Personalised ads and content, ad and content measurement, audience insights, and products development

    Ads and content can be personalised based on a profile. More data can be added to better personalise ads and content. Ad and content performance can be measured. Insights about the audience who saw the ads and content can be derived. Such data can be used to develop or improve user’s experience, systems and software.

By clicking ‘I Agree’ you will allow the use of indicated cookies, device identifiers, web beacons or other similar technologies. Your settings can be changed in the browser on your device.

For certain purposes, legitimate interests may be relied on, rather than consent. You can read more about this in our Privacy and Cookie Policy.